FLOCK 2K-01 (42852 NORAD) Tracking and Keplerian Element Data

This shows tracking and keplerian element data for the satellite.

Feedback or suggestion? Click here.




ElementValue
Catalog42852
NameFLOCK 2K-01
Epoch Orbit3283
Epoch Day45.72768257
Epoch Year2018
RAAN308.4633
Inclination96.9923
Eccentricity0.0010041
Argument of Perigee188.4222
Mean Anonmoly171.6856
Mean Motion15.35627767
Decay Rate7.426E-05
L11 42852U 17042AD 18045.72768257 .00007426 00000-0 21621-3 0 9991
L22 42852 96.9923 308.4633 0010041 188.4222 171.6856 15.35627767 32830

Live tracking and technical data element details for FLOCK 2K-01 (NORAD 42852). FLOCK 2K-01 can be tracked NOW for your location showing map with azimuth and elevation plus other details from your city location.

Track the satellite on the map from your city or location and see movement details for azimuth, elevation, latitude, longitude, range, height, and movement on the map or in text.







IsCatalogInMostPopularTable: catalog: 42852, numindb: 161
Update: records affected: 1



GetName: 42852 FLOCK 2K-01

Hit Count: updated at: Fri, 16 Nov 2018 03:44:38 GMT